Weather History for Mount Pleasant, MI

Change the Weather History Date:

Wednesday, September 18, 2013

  Actual Average (KAMN) Record (KAMN)
Temperature  
Mean Temperature 58 °F -  
Max Temperature 78 °F 71 °F 88 °F (1955)
Min Temperature 39 °F 49 °F 35 °F (1973)
Degree Days  
Heating Degree Days 6    
Growing Degree Days 8 (Base 50)    
Moisture  
Dew Point 47 °F    
Average Humidity 69    
Maximum Humidity 95    
Minimum Humidity 33    
Precipitation  
Precipitation 0.00 in - - ()
Sea Level Pressure  
Sea Level Pressure 30.10 in    
Wind  
Wind Speed 2 mph (South)    
Max Wind Speed 12 mph    
Max Gust Speed 16 mph    
Visibility 8 miles    
Events Fog    
Averages and records for this station are not official NWS values.
T = Trace of Precipitation, MM = Missing Value Source: NWS Daily Summary

Daily Weather History Graph

Daily Weather History Graph

Search for Another Location

Airport:

Trip Planner

Search our weather history database for the weather conditions in past years. The results will help you decide how hot, cold, wet, or windy it might be!

Date:

Astronomy

Sep. 18, 2013 Rise Set
Actual Time 7:21 AM EDT 7:43 PM EDT
Civil Twilight 6:53 AM EDT 8:11 PM EDT
Nautical Twilight 6:19 AM EDT 8:45 PM EDT
Astronomical Twilight 5:44 AM EDT 9:20 PM EDT
Moon 7:05 PM EDT (9/18) 6:22 AM EDT (9/18)
Length of Visible Light 13h 18m
Length of Day
12h 21m
Waxing Gibbous, 99% of the Moon is Illuminated
Sep 18
Waxing Gibbous
Sep 19
Full
Sep 26
Last Quarter
Oct 4
New
Oct 11
First Quarter

Hourly Weather History & Observations

Time (EDT) Temp. Dew Point Humidity Pressure Visibility Wind Dir Wind Speed Gust Speed Precip Events Conditions
12:17 AM 52.2 °F 46.0 °F 80% 30.21 in 10.0 mi SE 3.5 mph - N/A   Clear
12:37 AM 51.3 °F 45.5 °F 81% 30.21 in 10.0 mi SE 4.6 mph - N/A   Clear
12:57 AM 50.9 °F 45.3 °F 81% 30.20 in 10.0 mi Calm Calm - N/A   Clear
1:17 AM 48.4 °F 44.2 °F 86% 30.20 in 10.0 mi Calm Calm - N/A   Clear
1:37 AM 47.3 °F 43.9 °F 88% 30.20 in 10.0 mi Calm Calm - N/A   Clear
1:57 AM 47.1 °F 44.2 °F 90% 30.20 in 10.0 mi Calm Calm - N/A   Clear
2:17 AM 45.3 °F 42.6 °F 90% 30.20 in 10.0 mi Calm Calm - N/A   Clear
2:37 AM 45.0 °F 43.0 °F 93% 30.19 in 10.0 mi Calm Calm - N/A   Clear
2:57 AM 43.9 °F 42.1 °F 93% 30.18 in 1.8 mi Calm Calm - N/A   Mist
3:17 AM 43.9 °F 42.3 °F 94% 30.18 in 0.8 mi Calm Calm - N/A   Mist
3:38 AM 43.2 °F 41.5 °F 94% 30.18 in 7.0 mi Calm Calm - N/A   Clear
3:57 AM 42.3 °F 40.6 °F 94% 30.17 in 7.0 mi Calm Calm - N/A   Clear
4:17 AM 41.4 °F 39.7 °F 94% 30.16 in 5.0 mi Calm Calm - N/A   Clear
4:37 AM 42.3 °F 40.8 °F 95% 30.16 in 3.0 mi Calm Calm - N/A   Clear
4:57 AM 41.9 °F 40.5 °F 95% 30.16 in 0.8 mi Calm Calm - N/A   Mist
5:17 AM 41.7 °F 40.3 °F 95% 30.16 in 7.0 mi Calm Calm - N/A   Clear
5:37 AM 39.7 °F 38.3 °F 95% 30.16 in 0.2 mi Calm Calm - N/A Fog Fog
5:57 AM 41.0 °F 39.6 °F 95% 30.15 in 1.5 mi Calm Calm - N/A   Mist
6:17 AM 39.6 °F 37.9 °F 94% 30.15 in 0.5 mi Calm Calm - N/A Fog Fog
6:37 AM 41.0 °F 39.6 °F 95% 30.16 in 7.0 mi Calm Calm - N/A   Clear
6:57 AM 40.8 °F 39.6 °F 95% 30.16 in 4.0 mi Calm Calm - N/A   Clear
7:17 AM 40.6 °F 39.4 °F 95% 30.16 in 5.0 mi Calm Calm - N/A   Clear
7:37 AM 39.4 °F 37.9 °F 95% 30.16 in 0.2 mi Calm Calm - N/A Fog Fog
7:57 AM 40.5 °F 39.2 °F 95% 30.16 in 1.5 mi Calm Calm - N/A   Mist
8:17 AM 41.5 °F 40.3 °F 95% 30.16 in 7.0 mi Calm Calm - N/A   Clear
8:37 AM 44.1 °F 42.8 °F 95% 30.16 in 10.0 mi Calm Calm - N/A   Clear
8:57 AM 45.5 °F 44.2 °F 95% 30.16 in 10.0 mi Calm Calm - N/A   Clear
9:17 AM 47.5 °F 45.5 °F 93% 30.15 in 10.0 mi Calm Calm - N/A   Clear
9:37 AM 48.9 °F 46.6 °F 92% 30.15 in 10.0 mi Calm Calm - N/A   Clear
9:57 AM 51.6 °F 47.7 °F 86% 30.15 in 10.0 mi SE 3.5 mph - N/A   Clear
10:17 AM 54.7 °F 49.1 °F 81% 30.15 in 10.0 mi South 3.5 mph - N/A   Clear
10:37 AM 58.8 °F 51.1 °F 75% 30.14 in 10.0 mi South 4.6 mph - N/A   Clear
10:57 AM 62.6 °F 52.0 °F 68% 30.14 in 10.0 mi Calm Calm - N/A   Clear
11:17 AM 64.8 °F 52.0 °F 63% 30.13 in 10.0 mi South 4.6 mph - N/A   Clear
11:37 AM 66.9 °F 51.6 °F 58% 30.12 in 10.0 mi Calm Calm - N/A   Clear
11:57 AM 68.9 °F 52.0 °F 55% 30.11 in 10.0 mi ESE 4.6 mph - N/A   Clear
12:17 PM 70.9 °F 51.8 °F 51% 30.11 in 10.0 mi SSE 4.6 mph - N/A   Clear
12:37 PM 71.1 °F 51.8 °F 50% 30.10 in 10.0 mi South 3.5 mph - N/A   Clear
12:57 PM 71.4 °F 51.6 °F 50% 30.09 in 10.0 mi South 4.6 mph - N/A   Clear
1:17 PM 73.2 °F 51.4 °F 46% 30.08 in 10.0 mi South 4.6 mph - N/A   Clear
1:37 PM 75.4 °F 50.2 °F 41% 30.08 in 10.0 mi South 6.9 mph - N/A   Scattered Clouds
1:57 PM 75.6 °F 48.0 °F 38% 30.07 in 10.0 mi SSE 10.4 mph 16.1 mph N/A   Mostly Cloudy
2:17 PM 76.1 °F 49.1 °F 39% 30.06 in 10.0 mi South 10.4 mph - N/A   Scattered Clouds
2:37 PM 77.4 °F 48.6 °F 36% 30.06 in 10.0 mi SSW 11.5 mph - N/A   Scattered Clouds
2:57 PM 77.9 °F 48.6 °F 36% 30.05 in 10.0 mi South 8.1 mph - N/A   Clear
3:17 PM 78.1 °F 48.2 °F 35% 30.04 in 10.0 mi SW 11.5 mph - N/A   Clear
3:37 PM 77.7 °F 48.6 °F 36% 30.04 in 10.0 mi South 10.4 mph - N/A   Clear
3:57 PM 77.4 °F 49.5 °F 37% 30.03 in 10.0 mi South 9.2 mph - N/A   Scattered Clouds
4:17 PM 77.0 °F 47.5 °F 35% 30.03 in 10.0 mi SSW 10.4 mph - N/A   Scattered Clouds
4:37 PM 77.0 °F 48.7 °F 37% 30.02 in 10.0 mi South 6.9 mph 16.1 mph N/A   Scattered Clouds
4:57 PM 77.5 °F 47.5 °F 35% 30.01 in 10.0 mi South 9.2 mph - N/A   Scattered Clouds
5:17 PM 77.4 °F 46.2 °F 33% 30.01 in 10.0 mi SSE 11.5 mph - N/A   Clear
5:37 PM 77.5 °F 46.8 °F 34% 30.00 in 10.0 mi SSW 10.4 mph - N/A   Clear
5:57 PM 77.0 °F 45.7 °F 33% 30.00 in 10.0 mi South 9.2 mph - N/A   Clear
6:17 PM 77.0 °F 48.2 °F 36% 30.00 in 10.0 mi South 5.8 mph - N/A   Clear
6:37 PM 75.9 °F 48.4 °F 38% 30.00 in 10.0 mi South 9.2 mph - N/A   Clear
6:57 PM 74.8 °F 47.8 °F 38% 30.00 in 10.0 mi SSW 8.1 mph - N/A   Clear
7:17 PM 73.6 °F 48.6 °F 41% 30.00 in 10.0 mi South 3.5 mph - N/A   Clear
7:37 PM 72.1 °F 48.9 °F 44% 30.00 in 10.0 mi Calm Calm - N/A   Clear
7:57 PM 71.6 °F 49.1 °F 45% 30.00 in 10.0 mi Calm Calm - N/A   Clear
8:17 PM 65.7 °F 52.5 °F 62% 30.00 in 10.0 mi Calm Calm - N/A   Clear
8:37 PM 63.7 °F 52.9 °F 68% 30.01 in 10.0 mi Calm Calm - N/A   Clear
8:57 PM 61.7 °F 53.8 °F 75% 30.01 in 10.0 mi Calm Calm - N/A   Clear
9:17 PM 60.6 °F 54.0 °F 79% 30.01 in 10.0 mi Calm Calm - N/A   Clear
9:37 PM 59.5 °F 53.6 °F 81% 30.02 in 10.0 mi Calm Calm - N/A   Scattered Clouds
9:57 PM 59.5 °F 53.6 °F 81% 30.02 in 10.0 mi Calm Calm - N/A   Scattered Clouds
10:17 PM 61.7 °F 53.8 °F 75% 30.01 in 10.0 mi Calm Calm - N/A   Clear
10:37 PM 64.0 °F 53.8 °F 69% 30.01 in 10.0 mi SE 4.6 mph - N/A   Clear
10:57 PM 63.7 °F 53.6 °F 70% 30.01 in 10.0 mi Calm Calm - N/A   Clear
11:17 PM 63.1 °F 53.6 °F 71% 30.01 in 10.0 mi Calm Calm - N/A   Clear
11:37 PM 63.0 °F 53.6 °F 71% 30.01 in 10.0 mi SE 3.5 mph - N/A   Clear
11:57 PM 63.0 °F 53.2 °F 71% 30.01 in 10.0 mi SE 3.5 mph - N/A   Clear